DW1824 Weather Reports


Display with metric or nautical units.
time (UTC)temp
F
wind
direction
speed
MPH
gust
MPH
rain 1hr
in
rain 24hr
in
rain mn
in
humidity
%
barometer
mb
20260506005333 80 143 2.0 7.0 0.00 0.00 0.00 82 1006.9
20260506004401 80 137 2.0 7.0 0.00 0.00 0.00 81 1006.8
20260506003342 80 148 2.0 5.0 0.00 0.00 0.00 81 1006.8
20260506002328 80 135 3.0 7.0 0.00 0.00 0.00 79 1006.9
20260506001335 81 141 2.0 9.0 0.00 0.00 0.00 79 1006.7
20260506000341 81 135 3.0 6.0 0.00 0.00 0.00 80 1006.7
20260505235328 81 142 2.0 8.0 0.00 0.00 0.00 80 1006.8
20260505234335 81 166 4.0 10.0 0.00 0.00 0.00 79 1006.7
20260505233337 81 143 3.0 6.0 0.00 0.00 0.00 79 1006.7
20260505232345 82 152 3.0 7.0 0.00 0.00 0.00 78 1006.6
20260505231332 82 180 2.0 11.0 0.00 0.00 0.00 79 1006.6
20260505230335 82 142 3.0 13.0 0.00 0.00 0.00 78 1006.6
20260505225326 82 155 5.0 8.0 0.00 0.00 0.00 77 1006.5
20260505224334 82 192 3.0 12.0 0.00 0.00 0.00 77 1006.6
20260505223338 82 182 4.0 9.0 0.00 0.00 0.00 78 1006.6
20260505222325 83 167 4.0 12.0 0.00 0.00 0.00 77 1006.6
20260505221353 83 167 3.0 10.0 0.00 0.00 0.00 77 1006.6
20260505220355 83 167 3.0 11.0 0.00 0.00 0.00 77 1006.7
20260505215400 82 158 5.0 9.0 0.00 0.00 0.00 77 1006.9
20260505214325 83 169 3.0 10.0 0.00 0.00 0.00 78 1007.1
20260505213350 83 145 4.0 10.0 0.00 0.00 0.00 77 1007.2
20260505212338 83 194 3.0 11.0 0.00 0.00 0.00 77 1007.4
20260505211325 83 193 4.0 11.0 0.00 0.00 0.00 78 1007.5
20260505210326 83 163 5.0 11.0 0.00 0.00 0.00 77 1007.7
20260505205334 83 154 3.0 8.0 0.00 0.00 0.00 78 1007.8
20260505204342 83 180 2.0 6.0 0.00 0.00 0.00 79 1007.9
20260505203323 83 185 3.0 9.0 0.00 0.00 0.00 78 1008.1
20260505202333 83 171 4.0 10.0 0.00 0.00 0.00 77 1008.2
20260505201339 83 153 4.0 12.0 0.00 0.00 0.00 78 1008.2
20260505200342 82 167 4.0 8.0 0.00 0.00 0.00 80 1008.3
20260505195327 81 175 4.0 7.0 0.00 0.00 0.00 82 1008.6
20260505194334 81 129 4.0 8.0 0.00 0.00 0.00 81 1008.7
20260505193340 81 158 2.0 9.0 0.00 0.00 0.00 80 1008.8
20260505192328 81 152 2.0 9.0 0.00 0.00 0.00 81 1008.9
20260505191340 81 155 3.0 6.0 0.00 0.00 0.00 81 1008.9
20260505190401 81 198 2.0 7.0 0.00 0.00 0.00 81 1009.0
20260505185329 81 175 5.0 9.0 0.00 0.00 0.00 80 1009.0
20260505184335 81 187 3.0 15.0 0.00 0.00 0.00 82 1009.0
20260505183336 81 153 3.0 7.0 0.00 0.00 0.00 82 1009.1
20260505182343 80 169 4.0 12.0 0.00 0.00 0.00 82 1009.1
20260505181326 81 169 3.0 12.0 0.00 0.00 0.00 82 1009.2
20260505180346 80 187 3.0 8.0 0.00 0.00 0.00 82 1009.4
20260505175351 80 171 3.0 10.0 0.00 0.00 0.00 83 1009.6
20260505174343 80 167 3.0 7.0 0.00 0.00 0.00 83 1009.7
20260505173324 80 138 2.0 9.0 0.00 0.00 0.00 84 1009.7
20260505172332 80 108 3.0 9.0 0.00 0.00 0.00 83 1009.7
20260505171357 79 159 2.0 5.0 0.00 0.00 0.00 84 1009.7
20260505170339 79 190 3.0 9.0 0.00 0.00 0.00 84 1009.7
20260505165325 79 244 4.0 9.0 0.00 0.00 0.00 85 1009.8
20260505164333 79 184 3.0 13.0 0.00 0.00 0.00 85 1009.9
20260505163336 79 163 2.0 8.0 0.00 0.00 0.00 85 1009.8
20260505162328 79 157 2.0 11.0 0.00 0.00 0.00 85 1009.8
20260505161335 79 148 2.0 11.0 0.00 0.00 0.00 85 1009.6
20260505160338 78 179 3.0 8.0 0.00 0.00 0.00 86 1009.7
20260505153352 77 139 3.0 12.0 0.00 0.00 0.00 89 1009.5
20260505152355 77 126 2.0 5.0 0.00 0.00 0.00 88 1009.4
20260505151340 77 169 4.0 14.0 0.00 0.00 0.00 87 1009.5
20260505150343 77 158 2.0 9.0 0.00 0.00 0.00 88 1009.5
20260505140335 74 183 1.0 3.0 0.00 0.00 0.00 93 1009.2
20260505124350 71 127 2.0 5.0 0.00 0.00 0.00 94 1008.9
20260505123329 71 120 1.0 3.0 0.00 0.00 0.00 94 1009.2
20260505122338 71 125 0.0 3.0 0.00 0.00 0.00 94 1009.0
20260505121325 70 141 0.0 2.0 0.00 0.00 0.00 94 1009.0
20260505120337 70 127 0.0 3.0 0.00 0.00 0.00 94 1008.8
20260505115323 70 120 2.0 3.0 0.00 0.00 0.00 94 1008.7
20260505114330 69 133 1.0 4.0 0.00 0.00 0.00 94 1008.6
20260505113334 69 131 2.0 3.0 0.00 0.00 0.00 94 1008.5
20260505112343 69 130 2.0 3.0 0.00 0.00 0.00 94 1008.7
20260505111331 69 135 0.0 1.0 0.00 0.00 0.00 94 1008.7
20260505110335 69 128 1.0 2.0 0.00 0.00 0.00 94 1008.6
20260505101331 69 165 0.0 1.0 0.00 0.00 0.00 93 1008.7
20260505100334 69 165 0.0 2.0 0.00 0.00 0.00 93 1008.6
20260505095402 69 133 1.0 2.0 0.00 0.00 0.00 93 1008.6
20260505094328 69 152 0.0 0.0 0.00 0.00 0.00 93 1008.9
20260505093331 69 181 0.0 0.0 0.00 0.00 0.00 93 1008.9
20260505092341 69 133 0.0 0.0 0.00 0.00 0.00 93 1008.7
20260505091327 68 142 0.0 0.0 0.00 0.00 0.00 93 1008.9
20260505090326 68 142 0.0 0.0 0.00 0.00 0.00 92 1009.0
20260505085334 68 142 0.0 0.0 0.00 0.00 0.00 92 1009.1
20260505084342 68 142 0.0 0.0 0.00 0.00 0.00 92 1009.1
20260505083326 68 123 0.0 1.0 0.00 0.00 0.00 92 1009.2
20260505082337 69 123 1.0 2.0 0.00 0.00 0.00 92 1009.4
20260505081325 69 117 1.0 2.0 0.00 0.00 0.00 91 1009.4
20260505080330 69 109 0.0 1.0 0.00 0.00 0.00 91 1009.6
20260505075338 69 147 0.0 0.0 0.00 0.00 0.00 91 1009.6
20260505074325 69 168 0.0 2.0 0.00 0.00 0.00 91 1009.6
20260505073328 69 142 0.0 2.0 0.00 0.00 0.00 91 1009.6
20260505072356 69 163 0.0 2.0 0.00 0.00 0.00 90 1009.8
20260505071346 69 139 0.0 2.0 0.00 0.00 0.00 90 1009.8
20260505070329 69 138 2.0 4.0 0.00 0.00 0.00 90 1009.9
20260505065339 69 139 1.0 3.0 0.00 0.00 0.00 90 1009.9
20260505064328 69 136 0.0 4.0 0.00 0.00 0.00 89 1010.1
20260505063351 69 146 2.0 3.0 0.00 0.00 0.00 89 1010.2
20260505062336 70 172 1.0 3.0 0.00 0.00 0.00 89 1010.3
20260505061324 70 141 2.0 5.0 0.00 0.00 0.00 88 1010.3
20260505060328 70 140 2.0 5.0 0.00 0.00 0.00 88 1010.2
20260505055339 70 112 1.0 5.0 0.00 0.00 0.00 87 1010.5
20260505054326 70 167 2.0 5.0 0.00 0.00 0.00 87 1010.5
20260505053331 70 146 2.0 6.0 0.00 0.00 0.00 87 1010.5
20260505052337 70 145 2.0 5.0 0.00 0.00 0.00 87 1010.6
20260505051324 70 134 2.0 3.0 0.00 0.00 0.00 86 1010.8
20260505050328 70 142 1.0 3.0 0.00 0.00 0.00 86 1010.9
20260505041340 71 140 2.0 5.0 0.00 0.00 0.00 84 1011.0
20260505040324 71 133 2.0 6.0 0.00 0.00 0.00 83 1011.0
20260505035332 71 135 2.0 4.0 0.00 0.00 0.00 83 1011.1
20260505034338 71 137 2.0 6.0 0.00 0.00 0.00 83 1011.0
20260505033324 71 132 3.0 6.0 0.00 0.00 0.00 83 1011.1
20260505032330 72 146 2.0 8.0 0.00 0.00 0.00 82 1011.1
20260505031356 72 130 3.0 6.0 0.00 0.00 0.00 82 1011.2
20260505030337 72 136 2.0 5.0 0.00 0.00 0.00 81 1011.2
20260505025346 72 140 3.0 7.0 0.00 0.00 0.00 81 1011.0
20260505024332 72 142 3.0 5.0 0.00 0.00 0.00 81 1011.0
20260505023340 72 117 3.0 5.0 0.00 0.00 0.00 80 1011.0
20260505022329 73 141 3.0 6.0 0.00 0.00 0.00 80 1011.1
20260505021341 73 136 3.0 7.0 0.00 0.00 0.00 79 1011.0
20260505020326 73 138 3.0 7.0 0.00 0.00 0.00 78 1010.7
20260505015354 74 139 2.0 7.0 0.00 0.00 0.00 78 1010.6
20260505014336 74 164 2.0 7.0 0.00 0.00 0.00 76 1010.6
20260505013400 75 147 2.0 6.0 0.00 0.00 0.00 76 1010.5
20260505012326 75 140 3.0 7.0 0.00 0.00 0.00 75 1010.4
20260505011334 75 105 4.0 8.0 0.00 0.00 0.00 76 1010.2
20260505010340 75 141 3.0 6.0 0.00 0.00 0.00 76 1010.1